Weather History for Cape Kakkiviak, NL

Change the Weather History Date:

Thursday, July 25, 2013

  Actual Average Record
Temperature  
Mean Temperature 34 °F -  
Max Temperature 39 °F - - ()
Min Temperature 31 °F - - ()
Degree Days  
Heating Degree Days 31    
Moisture  
Dew Point -    
Average Humidity    
Maximum Humidity    
Minimum Humidity    
Precipitation  
Precipitation 0.00 in - - ()
Sea Level Pressure  
Sea Level Pressure 29.81 in    
Wind  
Wind Speed 19 mph ()    
Max Wind Speed 38 mph    
Max Gust Speed 41 mph    
T = Trace of Precipitation, MM = Missing Value Source: Averaged Metar Reports

Daily Weather History Graph

Daily Weather History Graph

Search for Another Location

Airport:

Trip Planner

Search our weather history database for the weather conditions in past years. The results will help you decide how hot, cold, wet, or windy it might be!

Date:

Astronomy

Jul. 25, 2013 Rise Set
Actual Time 4:41 AM ADT 10:02 PM ADT
Civil Twilight 3:35 AM ADT 11:08 PM ADT
Nautical Twilight 1:55 AM ADT 12:50 AM ADT
Astronomical Twilight Sun does not rise Sun does not rise
Moon 10:18 PM ADT (7/25) 9:19 AM ADT (7/25)
Length of Visible Light 19h 32m
Length of Day
17h 20m
Waning Gibbous, 89% of the Moon is Illuminated
Jul 25
Waning Gibbous
Jul 29
Last Quarter
Aug 6
New
Aug 14
First Quarter
Aug 20
Full

Hourly Weather History & Observations

Time (ADT) Temp. Windchill Dew Point Humidity Pressure Visibility Wind Dir Wind Speed Gust Speed Precip Events Conditions
12:00 AM 35.6 °F 32.8 °F - N/A% 29.80 in - NE 3.5 mph - N/A   Unknown
1:00 AM 37.4 °F 32.8 °F - N/A% 29.78 in - North 5.8 mph - N/A   Unknown
2:00 AM 35.6 °F 27.1 °F - N/A% 29.78 in - North 12.7 mph - N/A   Unknown
3:00 AM 33 °F - - % 29.78 in - North 16.1 mph - -  
3:00 AM 32.0 °F 21.6 °F - N/A% 29.78 in - North 15.0 mph - N/A   Unknown
4:00 AM 33.8 °F 23.2 °F - N/A% 29.76 in - North 17.3 mph 23.0 mph N/A   Unknown
5:00 AM 35.6 °F 23.0 °F - N/A% 29.75 in - North 27.6 mph - N/A   Unknown
6:00 AM 35.6 °F 23.2 °F - N/A% 29.74 in - North 26.5 mph - N/A   Unknown
7:00 AM - - - N/A% 29.73 in - North 26.5 mph - N/A   Unknown
8:00 AM - - - N/A% 29.73 in - NW 27.6 mph - N/A   Unknown
9:00 AM 31 °F - - % 29.71 in - NW 31.1 mph - -  
9:00 AM - - - N/A% 29.71 in - NW 31.1 mph - N/A   Unknown
10:00 AM 32.0 °F 18.1 °F - N/A% 29.72 in - NW 27.6 mph 34.5 mph N/A   Unknown
11:00 AM 32.0 °F 17.6 °F - N/A% 29.74 in - NW 29.9 mph - N/A   Unknown
12:00 PM 33.8 °F 21.9 °F - N/A% 29.75 in - NW 21.9 mph - N/A   Unknown
1:00 PM 35.6 °F 23.7 °F - N/A% 29.76 in - WNW 24.2 mph - N/A   Unknown
2:00 PM 33.8 °F 21.3 °F - N/A% 29.78 in - WNW 24.2 mph - N/A   Unknown
3:00 PM 33.8 °F 20.5 °F - N/A% 29.83 in - WNW 27.6 mph - N/A   Unknown
4:00 PM 33.8 °F 20.3 °F - N/A% 29.84 in - WNW 28.8 mph 34.5 mph N/A   Unknown
5:00 PM 35.6 °F 22.3 °F - N/A% 29.86 in - West 31.1 mph 36.8 mph N/A   Unknown
6:00 PM 35.6 °F 22.3 °F - N/A% 29.88 in - West 31.1 mph - N/A   Unknown
7:00 PM 37.4 °F 23.6 °F - N/A% 29.90 in - West 38.0 mph - N/A   Unknown
8:00 PM 37.4 °F 23.6 °F - N/A% 29.91 in - West 38.0 mph - N/A   Unknown
9:00 PM 37 °F - - % 29.94 in - West 33.4 mph - -  
9:00 PM 37.4 °F 24.4 °F - N/A% 29.94 in - West 33.4 mph 40.3 mph N/A   Unknown
10:00 PM 37.4 °F 24.4 °F - N/A% 29.96 in - West 33.4 mph 41.4 mph N/A   Unknown
11:00 PM 39.2 °F 27.2 °F - N/A% 29.98 in - West 31.1 mph 40.3 mph N/A   Unknown